DLH2ER ENBR-EDDH

Flight info

Callsign DLH2ER
Flight time N/A
Altitude 39000
Route TUXIL DCT ZOL DCT RAMUD DCT ALASA M852 EKERN T905 BOGMU BOGMU3N
Aircraft A320/M-SDE3FGHIRWY/LB1

Departure

Time 2026-05-06 18:03
Airport Bergen Airport, Flesland (ENBR)

Arrival

Time N/A
Airport Hamburg Helmut Schmidt Airport (EDDH)
Time Latitude Longitude Altitude Speed Heading
2026-05-06 17:36 60.28816 5.22693 173 ft 0 kts
2026-05-06 17:55 60.28815 5.22692 173 ft 2 kts
2026-05-06 17:55 60.28799 5.22687 173 ft 2 kts
2026-05-06 17:55 60.28781 5.22682 173 ft 3 kts
2026-05-06 17:55 60.28767 5.22676 172 ft 2 kts 344°
2026-05-06 17:56 60.28750 5.22683 171 ft 3 kts 353°
2026-05-06 17:56 60.28733 5.22687 171 ft 3 kts 353°
2026-05-06 17:56 60.28730 5.22688 171 ft 0 kts 353°
2026-05-06 17:58 60.28733 5.22683 171 ft 2 kts 331°
2026-05-06 17:58 60.28719 5.22600 168 ft 10 kts 242°
2026-05-06 17:58 60.28689 5.22437 165 ft 15 kts 252°
2026-05-06 17:58 60.28765 5.22332 163 ft 17 kts 352°
2026-05-06 17:59 60.28881 5.22292 162 ft 17 kts 349°
2026-05-06 17:59 60.29003 5.22252 162 ft 18 kts 351°
2026-05-06 17:59 60.29128 5.22210 163 ft 19 kts 350°
2026-05-06 17:59 60.29263 5.22165 163 ft 21 kts 351°
2026-05-06 18:00 60.29419 5.22113 157 ft 25 kts 351°
2026-05-06 18:00 60.29591 5.22054 150 ft 24 kts 350°
2026-05-06 18:00 60.29759 5.21998 148 ft 24 kts 352°
2026-05-06 18:00 60.29916 5.21945 154 ft 20 kts 350°
2026-05-06 18:01 60.30056 5.21898 160 ft 20 kts 350°
2026-05-06 18:01 60.30181 5.21856 164 ft 18 kts 351°
2026-05-06 18:01 60.30302 5.21816 168 ft 16 kts 351°
2026-05-06 18:01 60.30396 5.21785 172 ft 12 kts 350°
2026-05-06 18:02 60.30445 5.21706 173 ft 9 kts 279°
2026-05-06 18:02 60.30423 5.21536 171 ft 15 kts 242°
2026-05-06 18:02 60.30323 5.21485 166 ft 19 kts 170°
2026-05-06 18:02 60.30121 5.21555 161 ft 58 kts 171°
2026-05-06 18:03 60.29482 5.21768 153 ft 125 kts 170°
2026-05-06 18:03 60.28504 5.22088 479 ft 148 kts 171°
2026-05-06 18:03 60.27475 5.22422 1205 ft 151 kts 173°
2026-05-06 18:03 60.26420 5.22776 1803 ft 161 kts 173°
2026-05-06 18:04 60.25249 5.23173 2229 ft 180 kts 173°
2026-05-06 18:04 60.23950 5.23611 2674 ft 198 kts 173°
2026-05-06 18:04 60.22543 5.24087 3185 ft 211 kts 173°
2026-05-06 18:04 60.21029 5.24595 3642 ft 233 kts 173°
2026-05-06 18:05 60.19349 5.25146 4151 ft 256 kts 173°
2026-05-06 18:05 60.17546 5.25742 4992 ft 265 kts 172°
2026-05-06 18:05 60.15710 5.26355 5975 ft 269 kts 173°
2026-05-06 18:05 60.13849 5.26976 6935 ft 273 kts 173°
2026-05-06 18:06 60.11959 5.27608 7865 ft 277 kts 173°
2026-05-06 18:06 60.10044 5.28248 8802 ft 281 kts 173°
2026-05-06 18:06 60.08125 5.28863 9699 ft 285 kts 174°
2026-05-06 18:06 60.06131 5.29425 10366 ft 298 kts 175°
2026-05-06 18:07 60.03957 5.29990 10688 ft 322 kts 176°
2026-05-06 18:07 60.01691 5.30562 11118 ft 339 kts 176°
2026-05-06 18:07 59.99321 5.31171 11813 ft 347 kts 177°
2026-05-06 18:07 59.96914 5.31804 12628 ft 351 kts 178°
2026-05-06 18:08 59.94480 5.32452 13457 ft 354 kts 178°
2026-05-06 18:08 59.92028 5.33103 14236 ft 357 kts 179°
2026-05-06 18:08 59.89555 5.33759 14974 ft 360 kts 179°
2026-05-06 18:08 59.87062 5.34419 15728 ft 363 kts 179°
2026-05-06 18:09 59.84550 5.35089 16460 ft 366 kts 179°
2026-05-06 18:09 59.82020 5.35766 17188 ft 368 kts 179°
2026-05-06 18:09 59.79466 5.36440 17902 ft 371 kts 180°
2026-05-06 18:09 59.76900 5.36983 18540 ft 372 kts 182°
2026-05-06 18:10 59.74315 5.37412 19148 ft 374 kts 183°
2026-05-06 18:10 59.71711 5.37786 19721 ft 376 kts 184°
2026-05-06 18:10 59.69086 5.38153 20280 ft 380 kts 184°
2026-05-06 18:10 59.66438 5.38540 20828 ft 383 kts 184°
2026-05-06 18:11 59.63764 5.38970 21371 ft 388 kts 183°
2026-05-06 18:11 59.61061 5.39550 21906 ft 393 kts 181°
2026-05-06 18:11 59.58373 5.40237 22413 ft 397 kts 181°
2026-05-06 18:11 59.55625 5.40990 22942 ft 400 kts 180°
2026-05-06 18:12 59.52855 5.41754 23447 ft 403 kts 181°
2026-05-06 18:12 59.50102 5.42500 23890 ft 406 kts 181°
2026-05-06 18:12 59.47291 5.43245 24291 ft 408 kts 180°
2026-05-06 18:12 59.44473 5.43972 24762 ft 409 kts 180°
2026-05-06 18:13 59.41644 5.44686 25231 ft 410 kts 180°
2026-05-06 18:13 59.38809 5.45436 25693 ft 412 kts 179°
2026-05-06 18:13 59.35975 5.46355 26143 ft 415 kts 178°
2026-05-06 18:13 59.33125 5.47403 26589 ft 417 kts 177°
2026-05-06 18:14 59.30269 5.48511 27033 ft 419 kts 177°
2026-05-06 18:14 59.27405 5.49629 27482 ft 420 kts 177°
2026-05-06 18:14 59.24539 5.50728 27932 ft 421 kts 177°
2026-05-06 18:14 59.21697 5.51789 28345 ft 422 kts 178°
2026-05-06 18:15 59.18807 5.52843 28691 ft 423 kts 177°
2026-05-06 18:15 59.15898 5.53885 29036 ft 426 kts 177°
2026-05-06 18:15 59.12974 5.54923 29378 ft 428 kts 178°
2026-05-06 18:15 59.10040 5.55965 29732 ft 430 kts 178°
2026-05-06 18:16 59.07095 5.57015 30090 ft 432 kts 178°
2026-05-06 18:16 59.04134 5.58075 30375 ft 434 kts 177°
2026-05-06 18:16 59.01156 5.59141 30632 ft 436 kts 177°
2026-05-06 18:16 58.98161 5.60210 30868 ft 439 kts 177°
2026-05-06 18:17 58.95148 5.61282 31109 ft 442 kts 177°
2026-05-06 18:17 58.92122 5.62361 31426 ft 442 kts 177°
2026-05-06 18:17 58.89101 5.63628 31695 ft 448 kts 171°
2026-05-06 18:17 58.86153 5.65754 32010 ft 457 kts 161°
2026-05-06 18:18 58.83448 5.68634 32338 ft 463 kts 155°
2026-05-06 18:18 58.80577 5.71955 32684 ft 464 kts 155°
2026-05-06 18:18 58.77818 5.75128 33041 ft 464 kts 155°
2026-05-06 18:18 58.75049 5.78294 33379 ft 463 kts 156°
2026-05-06 18:19 58.72256 5.81470 33731 ft 463 kts 156°
2026-05-06 18:19 58.69478 5.84618 34079 ft 463 kts 156°
2026-05-06 18:19 58.66690 5.87766 34361 ft 463 kts 155°
2026-05-06 18:19 58.63912 5.90898 34654 ft 464 kts 155°
2026-05-06 18:20 58.61129 5.94037 34937 ft 464 kts 155°
2026-05-06 18:20 58.58342 5.97175 35201 ft 464 kts 155°
2026-05-06 18:20 58.55558 6.00305 35459 ft 465 kts 155°
2026-05-06 18:20 58.52807 6.03397 35714 ft 465 kts 155°
2026-05-06 18:21 58.50017 6.06527 35971 ft 465 kts 155°
2026-05-06 18:21 58.47219 6.09655 36224 ft 465 kts 155°
2026-05-06 18:21 58.44425 6.12775 36469 ft 465 kts 155°
2026-05-06 18:21 58.41626 6.15893 36704 ft 466 kts 155°
2026-05-06 18:22 58.38822 6.19012 36953 ft 466 kts 155°
2026-05-06 18:22 58.36026 6.22116 37181 ft 465 kts 155°
2026-05-06 18:22 58.34173 6.24173 37372 ft 465 kts 155°
2026-05-06 18:22 58.31377 6.27268 37570 ft 465 kts 154°
2026-05-06 18:23 58.28577 6.30359 37795 ft 465 kts 154°
2026-05-06 18:23 58.25782 6.33438 38014 ft 465 kts 154°
2026-05-06 18:23 58.22978 6.36523 38213 ft 465 kts 154°
2026-05-06 18:23 58.20181 6.39596 38414 ft 465 kts 154°
2026-05-06 18:24 58.17376 6.42675 38597 ft 466 kts 154°
2026-05-06 18:24 58.14568 6.45750 38757 ft 466 kts 154°
2026-05-06 18:24 58.11754 6.48828 38907 ft 466 kts 154°
2026-05-06 18:24 58.08946 6.51894 38997 ft 467 kts 154°
2026-05-06 18:25 58.03314 6.58012 39024 ft 467 kts 154°
2026-05-06 18:25 57.97683 6.64114 39005 ft 466 kts 154°
2026-05-06 18:26 57.92055 6.70205 39024 ft 466 kts 154°
2026-05-06 18:26 57.86431 6.76251 39017 ft 464 kts 154°
2026-05-06 18:27 57.80822 6.82260 39013 ft 464 kts 154°
2026-05-06 18:27 57.75241 6.88215 39017 ft 464 kts 154°
2026-05-06 18:28 57.69631 6.94196 39007 ft 464 kts 154°
2026-05-06 18:28 57.64016 7.00152 39017 ft 464 kts 155°
2026-05-06 18:29 57.58400 7.06076 39015 ft 464 kts 155°
2026-05-06 18:29 57.52771 7.11993 39019 ft 463 kts 155°
2026-05-06 18:30 57.47157 7.17886 39026 ft 463 kts 155°
2026-05-06 18:30 57.41531 7.23786 39004 ft 463 kts 155°
2026-05-06 18:31 57.35920 7.29615 39025 ft 462 kts 155°
2026-05-06 18:31 57.30302 7.35425 39032 ft 462 kts 155°
2026-05-06 18:32 57.24697 7.41235 39027 ft 462 kts 155°
2026-05-06 18:32 57.19131 7.46988 39029 ft 462 kts 155°
2026-05-06 18:33 57.13520 7.52751 39012 ft 461 kts 155°
2026-05-06 18:33 57.07914 7.58486 39023 ft 461 kts 155°
2026-05-06 18:34 57.02333 7.64293 39032 ft 462 kts 153°
2026-05-06 18:34 56.96845 7.70460 39031 ft 462 kts 152°
2026-05-06 18:35 56.91396 7.76696 39034 ft 462 kts 152°
2026-05-06 18:35 56.85929 7.82833 39010 ft 461 kts 153°
2026-05-06 18:36 56.80447 7.88863 39031 ft 460 kts 153°
2026-05-06 18:36 56.74971 7.94866 39032 ft 459 kts 153°
2026-05-06 18:37 56.69504 8.00864 39030 ft 458 kts 153°
2026-05-06 18:37 56.64045 8.06847 39032 ft 458 kts 153°
2026-05-06 18:38 56.58586 8.12803 39024 ft 458 kts 153°
2026-05-06 18:38 56.53128 8.18738 39002 ft 457 kts 153°
2026-05-06 18:39 56.47673 8.24638 39010 ft 456 kts 153°
2026-05-06 18:40 56.39488 8.33460 39009 ft 456 kts 153°
2026-05-06 18:40 56.34099 8.39250 39010 ft 456 kts 153°
2026-05-06 18:41 56.28635 8.45095 38986 ft 456 kts 154°
2026-05-06 18:41 56.23176 8.50913 38990 ft 456 kts 153°
2026-05-06 18:42 56.17719 8.56716 38995 ft 456 kts 153°
2026-05-06 18:42 56.12267 8.62497 38992 ft 455 kts 153°
2026-05-06 18:43 56.06813 8.68255 38984 ft 454 kts 154°
2026-05-06 18:43 56.01434 8.73913 38985 ft 454 kts 154°
2026-05-06 18:44 55.95991 8.79629 38968 ft 453 kts 154°
2026-05-06 18:44 55.90585 8.85278 38966 ft 453 kts 154°
2026-05-06 18:45 55.85218 8.90874 38969 ft 453 kts 154°
2026-05-06 18:45 55.79777 8.96525 38967 ft 452 kts 154°
2026-05-06 18:46 55.74334 9.02143 38949 ft 452 kts 154°
2026-05-06 18:46 55.68897 9.07757 38956 ft 452 kts 154°
2026-05-06 18:47 55.63462 9.13365 38959 ft 452 kts 154°
2026-05-06 18:47 55.58017 9.18944 38960 ft 452 kts 154°
2026-05-06 18:48 55.52564 9.24516 38750 ft 452 kts 154°
2026-05-06 18:48 55.49843 9.27292 38505 ft 451 kts 154°
2026-05-06 18:48 55.47127 9.30058 38223 ft 450 kts 154°
2026-05-06 18:48 55.44410 9.32819 37946 ft 450 kts 154°
2026-05-06 18:49 55.41703 9.35565 37656 ft 449 kts 154°
2026-05-06 18:49 55.38994 9.38312 37380 ft 449 kts 154°
2026-05-06 18:49 55.36289 9.41052 37073 ft 448 kts 154°
2026-05-06 18:49 55.33620 9.43746 36314 ft 449 kts 154°
2026-05-06 18:50 55.30904 9.46476 35528 ft 451 kts 154°
2026-05-06 18:50 55.28164 9.49225 34659 ft 455 kts 154°
2026-05-06 18:50 55.25415 9.51982 33851 ft 456 kts 154°
2026-05-06 18:50 55.22658 9.54751 32837 ft 458 kts 154°
2026-05-06 18:51 55.19898 9.57524 32099 ft 455 kts 154°
2026-05-06 18:51 55.17184 9.60253 31088 ft 446 kts 154°
2026-05-06 18:51 55.14534 9.62912 30533 ft 433 kts 154°
2026-05-06 18:51 55.11930 9.65515 29906 ft 429 kts 154°
2026-05-06 18:52 55.09348 9.68086 29256 ft 423 kts 154°
2026-05-06 18:52 55.06809 9.70610 28694 ft 418 kts 154°
2026-05-06 18:52 55.04296 9.73100 28091 ft 413 kts 154°
2026-05-06 18:52 55.01811 9.75530 27583 ft 405 kts 157°
2026-05-06 18:53 54.99231 9.77279 27025 ft 396 kts 166°
2026-05-06 18:53 54.96608 9.78703 26347 ft 395 kts 167°
2026-05-06 18:53 54.93985 9.80080 25728 ft 392 kts 167°
2026-05-06 18:53 54.91380 9.81420 25144 ft 389 kts 167°
2026-05-06 18:54 54.88789 9.82737 24557 ft 386 kts 167°
2026-05-06 18:54 54.86243 9.84031 23946 ft 385 kts 167°
2026-05-06 18:54 54.83672 9.85344 23300 ft 385 kts 167°
2026-05-06 18:54 54.81069 9.86685 22649 ft 383 kts 166°
2026-05-06 18:55 54.78559 9.87986 22087 ft 380 kts 166°
2026-05-06 18:55 54.76037 9.89293 21551 ft 377 kts 166°
2026-05-06 18:55 54.73532 9.90591 21026 ft 374 kts 166°
2026-05-06 18:55 54.71053 9.91876 20522 ft 370 kts 166°
2026-05-06 18:56 54.68596 9.93146 20033 ft 367 kts 166°
2026-05-06 18:56 54.66156 9.94403 19553 ft 364 kts 166°
2026-05-06 18:56 54.63740 9.95643 19094 ft 361 kts 166°
2026-05-06 18:56 54.61340 9.96869 18643 ft 358 kts 166°
2026-05-06 18:57 54.58958 9.98088 18172 ft 356 kts 165°
2026-05-06 18:57 54.56593 9.99304 17652 ft 354 kts 165°
2026-05-06 18:57 54.54238 10.00512 17127 ft 352 kts 165°